Flag for Germany Weather past 2 weeks in Konstanz, Baden-Württemberg, Germany

Now
70 °F

Partly sunny.


Feels Like: 73 °F
Forecast: 54 / 70 °F
Wind: 2 mph from East

Location: Konstanz

Current Time: Aug 29, 2014 at 4:16:40 PM

Latest Report: Aug 29, 2014 at 3:00 PM


Visibility: 14 mi

Pressure: 30.02 "Hg

Humidity: 73%

Dew point: 61 °F

Location of KonstanzLocation

Historic Weather in Konstanz — Graph

°F

Konstanz temperature yesterday

Maximum temperature yesterday: 73 °F (at 4:00 PM)
Minimum temperature yesterday: 56 °F (at 12:00 AM)
Average temperature yesterday: 63 °F

Past Weeks' High & Low Weather Summary

 TemperatureHumidityPressure
High73 °F (Aug 28, 4:00 PM)99% (Aug 28, 1:00 AM)30.21 "Hg (Aug 28, 1:00 AM)
Low48 °F (Aug 17, 7:00 AM)38% (Aug 21, 5:00 PM)29.75 "Hg (Aug 26, 7:00 PM)
Average60 °F74%30.00 "Hg
* Reported Aug 14 3:00 PM — Aug 29 3:00 PM, Konstanz, Weather by CustomWeather, © 2014

Note: Actual official high and low records may vary slightly from our data, if they occured in-between our weather recording intervals... More about our weather records

Advertising

Konstanz weather history for previous 24 hours

 ConditionsComfort  
Time TempWeatherWind HumidityBarometerVisibility
3:00 PM
Aug 29
70 °FPartly sunny.2 mph73%30.02 "Hg14 mi
2:00 PM70 °FOvercast.2 mph75%30.04 "Hg16 mi
1:00 PM68 °FOvercast.2 mph77%30.05 "Hg9 mi
12:00 PM65 °FLight rain. Overcast.1 mph88%30.06 "Hg9 mi
11:00 AM63 °FLight rain. Low clouds.1 mph91%30.07 "Hg6 mi
10:00 AM62 °FOvercast.1 mph93%30.07 "Hg5 mi
9:00 AM61 °FOvercast.2 mph90%30.06 "Hg9 mi
8:00 AM60 °FLow clouds.1 mph94%30.06 "Hg8 mi
7:00 AM59 °FLow clouds.2 mph95%30.06 "Hg8 mi
6:00 AM58 °FPassing clouds.2 mph96%30.05 "Hg8 mi
5:00 AM58 °FClear.2 mph96%30.06 "Hg7 mi
4:00 AM58 °FClear.1 mph95%30.07 "Hg14 mi
3:00 AM60 °FOvercast.1 mph94%30.06 "Hg15 mi
2:00 AM60 °FPassing clouds.2 mph92%30.07 "Hg22 mi
1:00 AM61 °FClear.1 mph86%30.06 "Hg34 mi
12:00 AM62 °FPassing clouds.2 mph86%30.06 "Hg37 mi
11:00 PM
Aug 28
64 °FOvercast.2 mph81%30.05 "Hg40 mi
10:00 PM65 °FPassing clouds.2 mph67%30.04 "Hg43 mi
9:00 PM67 °FClear.2 mph63%30.03 "Hg43 mi
8:00 PM69 °FPartly sunny.1 mph58%30.01 "Hg43 mi
7:00 PM71 °FScattered clouds.2 mph55%30.01 "Hg43 mi
6:00 PM72 °FSunny.2 mph53%30.01 "Hg34 mi
5:00 PM72 °FPartly sunny.3 mph54%30.01 "Hg28 mi
4:00 PM73 °FScattered clouds.2 mph53%30.01 "Hg28 mi
Weather by CustomWeather, © 2014

See weather overviewHow to use our weather pages